Weather History for St. Petersburg, FL

Change the Weather History Date:

Saturday, March 23, 2013

  Actual Average Record
Temperature  
Mean Temperature 72 °F -  
Max Temperature 78 °F 76 °F 84 °F (1952)
Min Temperature 66 °F 59 °F 43 °F (1986)
Cooling Degree Days 6    
Growing Degree Days 22 (Base 50)    
Moisture  
Dew Point 68 °F    
Average Humidity 92    
Maximum Humidity 100    
Minimum Humidity 82    
Precipitation  
Precipitation 0.00 in - - ()
Sea Level Pressure  
Sea Level Pressure 29.87 in    
Wind  
Wind Speed 10 mph (SSW)    
Max Wind Speed 16 mph    
Max Gust Speed 24 mph    
Visibility 7 miles    
Events Fog    
Averages and records for this station are not official NWS values.
T = Trace of Precipitation, MM = Missing Value Source: NWS Daily Summary

Daily Weather History Graph

Daily Weather History Graph

Search for Another Location

Airport:

Trip Planner

Search our weather history database for the weather conditions in past years. The results will help you decide how hot, cold, wet, or windy it might be!

Date:

Astronomy

Mar. 23, 2013 Rise Set
Actual Time 7:30 AM EDT 7:43 PM EDT
Civil Twilight 7:07 AM EDT 8:06 PM EDT
Nautical Twilight 6:40 AM EDT 8:34 PM EDT
Astronomical Twilight 6:12 AM EDT 9:01 PM EDT
Moon 4:24 PM EDT (3/23) 4:48 AM EDT (3/23)
Length of Visible Light 12h 59m
Length of Day
12h 12m
Waxing Gibbous, 85% of the Moon is Illuminated
Mar 23
Waxing Gibbous
Mar 27
Full
Apr 3
Last Quarter
Apr 10
New
Apr 18
First Quarter

Hourly Weather History & Observations

Time (EDT) Temp. Dew Point Humidity Pressure Visibility Wind Dir Wind Speed Gust Speed Precip Events Conditions
12:53 AM 66.9 °F 64.9 °F 93% 29.96 in 10.0 mi ESE 11.5 mph - N/A   Overcast
1:15 AM 66.9 °F 64.9 °F 93% 29.96 in 8.0 mi SE 10.4 mph - N/A   Overcast
1:53 AM 66.9 °F 64.0 °F 90% 29.94 in 9.0 mi SE 12.7 mph - 0.00 in   Overcast
2:04 AM 66.9 °F 64.0 °F 90% 29.94 in 9.0 mi SE 10.4 mph - N/A   Overcast
2:25 AM 66.0 °F 64.0 °F 93% 29.93 in 9.0 mi SE 11.5 mph - N/A   Overcast
3:00 AM 66.0 °F 64.0 °F 93% 29.93 in 9.0 mi ESE 8.1 mph - N/A   Mostly Cloudy
3:53 AM 66.0 °F 64.0 °F 93% 29.91 in 10.0 mi SE 8.1 mph - N/A   Overcast
4:08 AM 66.0 °F 64.0 °F 93% 29.90 in 10.0 mi SE 6.9 mph - N/A   Overcast
4:20 AM 66.0 °F 64.0 °F 93% 29.90 in 10.0 mi SSE 8.1 mph - N/A   Overcast
4:53 AM 66.0 °F 64.0 °F 93% 29.89 in 8.0 mi SSE 6.9 mph - N/A   Overcast
5:53 AM 66.0 °F 64.9 °F 96% 29.91 in 7.0 mi SSE 4.6 mph - N/A   Overcast
6:25 AM 66.0 °F 64.9 °F 96% 29.91 in 7.0 mi SSE 3.5 mph - N/A   Overcast
6:34 AM 66.0 °F 64.9 °F 96% 29.91 in 7.0 mi South 3.5 mph - N/A   Overcast
6:53 AM 66.0 °F 64.9 °F 96% 29.91 in 7.0 mi South 5.8 mph - N/A   Overcast
7:07 AM 66.0 °F 64.9 °F 96% 29.90 in 7.0 mi South 5.8 mph - N/A   Mostly Cloudy
7:53 AM 66.0 °F 64.9 °F 96% 29.91 in 5.0 mi South 4.6 mph - N/A   Scattered Clouds
8:38 AM 66.9 °F 64.9 °F 93% 29.92 in 6.0 mi SSE 4.6 mph - N/A   Mostly Cloudy
8:46 AM 66.9 °F 64.9 °F 93% 29.92 in 6.0 mi SSE 4.6 mph - N/A   Overcast
8:53 AM 66.9 °F 64.9 °F 93% 29.92 in 8.0 mi South 4.6 mph - N/A   Overcast
9:53 AM 70.0 °F 66.9 °F 90% 29.90 in 9.0 mi SSW 10.4 mph - N/A   Overcast
10:53 AM 73.0 °F 70.0 °F 90% 29.91 in 7.0 mi SSW 6.9 mph - N/A   Overcast
11:53 AM 77.0 °F 71.1 °F 82% 29.90 in 9.0 mi SW 11.5 mph - N/A   Overcast
12:17 PM 77.0 °F 71.1 °F 82% 29.90 in 10.0 mi SW 11.5 mph 20.7 mph N/A   Scattered Clouds
12:43 PM 77.0 °F 71.1 °F 82% 29.90 in 10.0 mi SW 16.1 mph 24.2 mph N/A   Scattered Clouds
12:50 PM 75.2 °F 71.6 °F 89% 29.90 in 9.0 mi SW 13.8 mph 24.2 mph N/A   Mostly Cloudy
12:53 PM 75.9 °F 71.1 °F 85% 29.90 in 9.0 mi SW 12.7 mph - N/A   Mostly Cloudy
1:53 PM 75.9 °F 71.1 °F 85% 29.88 in 10.0 mi WSW 12.7 mph - N/A   Mostly Cloudy
2:06 PM 75.9 °F 71.1 °F 85% 29.88 in 10.0 mi WSW 15.0 mph - N/A   Mostly Cloudy
2:16 PM 75.9 °F 71.1 °F 85% 29.88 in 9.0 mi WSW 13.8 mph - N/A   Scattered Clouds
2:53 PM 75.0 °F 70.0 °F 84% 29.86 in 10.0 mi SW 12.7 mph - N/A   Scattered Clouds
3:10 PM 75.0 °F 70.0 °F 84% 29.85 in 9.0 mi SW 12.7 mph - N/A   Mostly Cloudy
3:32 PM 73.9 °F 71.1 °F 91% 29.85 in 9.0 mi SSW 12.7 mph 19.6 mph N/A   Overcast
3:53 PM 75.9 °F 71.1 °F 85% 29.83 in 10.0 mi SW 16.1 mph 24.2 mph N/A   Overcast
4:33 PM 77.0 °F 71.1 °F 82% 29.81 in 10.0 mi SW 11.5 mph 20.7 mph N/A   Scattered Clouds
4:53 PM 77.0 °F 71.1 °F 82% 29.80 in 10.0 mi SSW 13.8 mph 23.0 mph N/A   Partly Cloudy
5:18 PM 75.9 °F 71.1 °F 85% 29.81 in 10.0 mi SW 11.5 mph 20.7 mph N/A   Mostly Cloudy
5:53 PM 75.9 °F 71.1 °F 85% 29.81 in 9.0 mi SW 12.7 mph - N/A   Overcast
6:01 PM 75.0 °F 71.1 °F 87% 29.80 in 8.0 mi WSW 11.5 mph - N/A   Overcast
6:22 PM 73.0 °F 71.1 °F 93% 29.81 in 5.0 mi SW 11.5 mph - N/A   Overcast
6:35 PM 73.0 °F 71.1 °F 93% 29.81 in 6.0 mi SW 9.2 mph - N/A   Overcast
6:53 PM 72.0 °F 71.1 °F 97% 29.81 in 4.0 mi SW 10.4 mph - N/A   Overcast
7:53 PM 71.1 °F 70.0 °F 96% 29.82 in 4.0 mi SW 8.1 mph - N/A   Overcast
8:30 PM 71.1 °F 70.0 °F 96% 29.83 in 1.8 mi SSW 8.1 mph - N/A   Overcast
8:44 PM 70.0 °F 70.0 °F 100% 29.83 in 0.5 mi SSW 10.4 mph - N/A Fog Fog
8:53 PM 70.0 °F 70.0 °F 100% 29.83 in 0.5 mi SSW 9.2 mph - N/A Fog Fog
9:03 PM 70.0 °F 70.0 °F 100% 29.83 in 0.2 mi SSW 9.2 mph - N/A Fog Fog
9:11 PM 70.0 °F 70.0 °F 100% 29.83 in 0.5 mi SSW 8.1 mph - N/A Fog Fog
9:53 PM 70.0 °F 70.0 °F 100% 29.85 in 0.8 mi South 6.9 mph - N/A   Mist
10:15 PM 70.0 °F 70.0 °F 100% 29.84 in 1.0 mi SSW 9.2 mph - N/A   Mist
10:36 PM 71.1 °F 70.0 °F 96% 29.85 in 3.0 mi SSW 8.1 mph - N/A   Overcast
10:53 PM 71.1 °F 70.0 °F 96% 29.85 in 4.0 mi SSW 8.1 mph - N/A   Overcast
11:14 PM 71.1 °F 70.0 °F 96% 29.85 in 5.0 mi SSW 6.9 mph - N/A   Overcast
11:53 PM 70.0 °F 70.0 °F 100% 29.83 in 4.0 mi SSW 6.9 mph - N/A   Overcast